TimeHST,TemperatureF,Dew PointF,Humidity,Sea Level PressureIn,VisibilityMPH,Wind Direction,Wind SpeedMPH,Gust SpeedMPH,PrecipitationIn,Events,Conditions,WindDirDegrees,DateUTC
12:53 AM,68.0,66.9,96,30.13,10.0,Calm,Calm,-,N/A,,Partly Cloudy,0,2012-02-15 10:53:00
1:53 AM,69.1,68.0,96,30.12,10.0,Calm,Calm,-,N/A,,Scattered Clouds,0,2012-02-15 11:53:00
2:53 AM,68.0,66.9,96,30.11,10.0,NNW,4.6,-,N/A,,Partly Cloudy,340,2012-02-15 12:53:00
3:53 AM,69.1,66.9,93,30.09,10.0,Calm,Calm,-,N/A,,Overcast,0,2012-02-15 13:53:00
4:14 AM,71.6,69.8,94,30.09,10.0,Calm,Calm,-,N/A,,Mostly Cloudy,0,2012-02-15 14:14:00
5:53 AM,71.8,68.0,88,30.11,10.0,Calm,Calm,-,N/A,,Scattered Clouds,0,2012-02-15 15:53:00
6:53 AM,69.1,66.9,93,30.12,10.0,Calm,Calm,-,N/A,,Scattered Clouds,0,2012-02-15 16:53:00
7:53 AM,70.0,68.0,93,30.14,10.0,North,4.6,-,N/A,,Scattered Clouds,360,2012-02-15 17:53:00
8:53 AM,75.9,68.0,76,30.14,10.0,NNE,3.5,-,N/A,,Scattered Clouds,30,2012-02-15 18:53:00
9:53 AM,75.0,66.9,76,30.16,10.0,South,5.8,-,N/A,,Scattered Clouds,180,2012-02-15 19:53:00
10:53 AM,78.1,68.0,71,30.16,10.0,SSE,10.4,-,N/A,,Scattered Clouds,150,2012-02-15 20:53:00
11:53 AM,79.0,66.9,66,30.14,10.0,SE,11.5,-,N/A,,Scattered Clouds,140,2012-02-15 21:53:00
12:53 PM,78.1,66.0,66,30.12,10.0,SE,12.7,-,N/A,,Scattered Clouds,140,2012-02-15 22:53:00
1:53 PM,80.1,66.9,64,30.10,10.0,SSE,11.5,-,N/A,,Scattered Clouds,150,2012-02-15 23:53:00
2:53 PM,79.0,69.1,72,30.09,10.0,SSE,15.0,-,0.00,,Scattered Clouds,150,2012-02-16 00:53:00
3:53 PM,80.1,66.9,64,30.09,10.0,SE,9.2,-,N/A,,Scattered Clouds,140,2012-02-16 01:53:00
4:53 PM,79.0,64.9,62,30.10,10.0,ENE,11.5,-,N/A,,Scattered Clouds,60,2012-02-16 02:53:00
5:53 PM,77.0,66.0,69,30.12,10.0,NNE,9.2,-,N/A,,Scattered Clouds,30,2012-02-16 03:53:00
6:53 PM,75.9,66.9,74,30.14,10.0,ENE,10.4,-,N/A,,Scattered Clouds,60,2012-02-16 04:53:00
7:53 PM,75.0,69.1,82,30.17,10.0,ENE,6.9,-,N/A,,Partly Cloudy,60,2012-02-16 05:53:00
8:53 PM,75.0,68.0,79,30.19,10.0,NNE,3.5,-,N/A,,Scattered Clouds,30,2012-02-16 06:53:00
9:53 PM,73.0,68.0,84,30.20,10.0,NE,5.8,-,N/A,,Scattered Clouds,40,2012-02-16 07:53:00
10:53 PM,73.0,69.1,87,30.20,10.0,NE,3.5,-,N/A,,Scattered Clouds,50,2012-02-16 08:53:00
11:53 PM,73.0,68.0,84,30.20,10.0,NE,6.9,-,N/A,,Partly Cloudy,40,2012-02-16 09:53:00